Regional Weather Roundup
Issued by NWS

Home | Current Version | Previous Version | Text Only | Print | Product List | Glossary On
Versions: 1 2 3 4 5 6 7 8 9 10 11 12 13 14 15 16 17 18 19 20 21 22 23 24 25 26 27 28 29 30 31 32 33 34 35 36 37 38 39 40 41 42 43 44 45 46 47 48 49 50
000
ASHW40 PHFO 300933
RWRHI

WEATHER ROUNDUP FOR HAWAII
NATIONAL WEATHER SERVICE HONOLULU HI
1100 PM HST SUN MAY 29 2016

THIS IS AN AUTOMATED REPORT THAT HAS NOT BEEN QUALITY CONTROLLED.

NOTE..."FAIR" INDICATES FEW OR NO CLOUDS BELOW 12,000 FEET WITH NO
SIGNIFICANT WEATHER AND/OR OBSTRUCTIONS TO VISIBILITY.

* - THESE SITES REPORT LIMITED FIELDS

HIZ001>004-301000-
KAUAI-NIIHAU-

CITY           SKY/WX    TMP DP  RH WIND       PRES   REMARKS
LIHUE APT      PTCLDY    72  68  87 NW5       30.07S
PORT ALLEN*      N/A     72 N/A N/A NE7         N/A
POIPU*           N/A     70 N/A N/A NE3         N/A
PRINCEVILLE*     N/A     73 N/A N/A SE3         N/A
KOKOLE POINT*  NOT AVBL
MOLOAA DAIRY*    N/A     72  70  94 N1          N/A
WAIMEA HTS*    NOT AVBL
PUU OPAE*      NOT AVBL
PUU LUA*       NOT AVBL
MAKAHA RIDGE*    N/A     66  64  94 NE3G9       N/A
$$

HIZ005>011-301000-
OAHU-

CITY           SKY/WX    TMP DP  RH WIND       PRES   REMARKS
HONOLULU       PTCLDY    74  70  87 NW5       30.05R
KALAELOA       CLEAR     73  68  84 E3        30.06S
KANEOHE MCB    CLEAR     74  67  78 CALM      30.03S
WHEELER FIELD  FAIR      69  65  87 NW6       30.06S
BELLOWS*         N/A    N/A N/A N/A NE8         N/A
KAHUKU*          N/A    N/A N/A N/A VRB1        N/A
WHEELER*       NOT AVBL
WAIANAE HARBOR NOT AVBL
DILLINGHAM*      N/A     73  64  73 MISG        N/A
KAHUKU TRN*      N/A     70  63  78 CALM        N/A
KAWAILOA*        N/A     70  63  78 E3          N/A
KII*             N/A     73  64  73 SE3         N/A
MAKUA RANGE*     N/A     84  72  65 E5G10       N/A
OAHU FOREST NW NOT AVBL
SCHOFIELD BRK*   N/A     82  79  89 MISG        N/A  HX  93
SCHOFIELD S*   NOT AVBL
WAIANAE VLY*   NOT AVBL
KUAOKALA*      NOT AVBL
HONOULIUULI*   NOT AVBL
MOKUOLOE IS*   NOT AVBL
PALEHUA*       NOT AVBL
WAIAWA PHB*    NOT AVBL
$$

HIZ012>013-301000-
MOLOKAI-

CITY           SKY/WX    TMP DP  RH WIND       PRES   REMARKS
MOLOKAI AIRPT  CLEAR     72  66  81 N5        30.07R
KALAUPAPA      NOT AVBL
MAKAPULAPAI*     N/A     72  64  78 SE6         N/A
MOLOKAI 1*     NOT AVBL
PUU ALII*        N/A     56  56 100 CALM        N/A
$$

HIZ016-301000-
KAHOOLAWE-

CITY           SKY/WX    TMP DP  RH WIND       PRES   REMARKS
KAHOOLAWE*       N/A     70 N/A N/A E1          N/A
HAKIOAWA*        N/A     83  78  84 CALM      30.48S HX  93
HONOKANAIA*      N/A     78  68  72 E7        29.99S
KANELOA*         N/A     73  68  83 E7G13     30.12R
KEALIALALO*    NOT AVBL
LUA MAKIKA*    NOT AVBL
$$

HIZ014>015-301000-
LANAI-

CITY           SKY/WX    TMP DP  RH WIND       PRES   REMARKS
LANAI CITY     FAIR      67  64  90 E5        30.11S
LANAI 1*       NOT AVBL
$$

HIZ017>028-301000-
MAUI-

CITY           SKY/WX    TMP DP  RH WIND       PRES   REMARKS
KAHULUI        MOCLDY    71  67  87 SE5       30.05R
KAPALUA-W MAUI NOT AVBL
HANA AIRPORT   NOT AVBL
HANA*            N/A     72 N/A N/A S3          N/A
HALEAKALA SUMM   N/A     43  34  70 NW13        N/A
MAALAEA BAY*     N/A     72 N/A N/A N2          N/A
HALEAKALA*     NOT AVBL
KAUPO GAP*     NOT AVBL
KULA 1*          N/A     50  41  71 E3          N/A
$$

HIZ023>026-301000-
BIG ISLAND OF HAWAII COAST AND LOWER SLOPES-

CITY           SKY/WX    TMP DP  RH WIND       PRES   REMARKS
KAILUA KONA    MOCLDY    78  68  71 SE6       30.04R
HILO           CLEAR     71  65  81 SW5       30.05S
HONOKAA*         N/A     64 N/A N/A VRB1        N/A
KAWAIHAE MWT*    N/A     77 N/A N/A SE3         N/A
KAWAIHAE*        N/A     79 N/A N/A E2        30.04F
SOUTH POINT*     N/A     72 N/A N/A NW5         N/A
UPOLU AIRPORT*   N/A    N/A N/A N/A SE8         N/A
KAMUELA*       NOT AVBL
HAKALAU*         N/A     45  39  81 W5          N/A
KALOKO-HONOKO*   N/A     75  68  78 CALM      30.03S
PALI 2*          N/A    N/A N/A N/A S1          N/A
KEALAKOMO*       N/A     72  63  73 N5          N/A
KAUPULEHU*     NOT AVBL
KAPAPALA*        N/A     65  64  95 NW3         N/A
LOWER KAHUKU*    N/A     63 -40   1 N1          N/A
PUHE CS*         N/A     77  64  65 SE2         N/A
PUHO CS*         N/A     73  66  78 NE2         N/A
PTA KEAMUKU*     N/A     57  55  94 CALM        N/A
WAIKOLOA*      NOT AVBL
$$

HIZ027>028-301000-
BIG ISLAND OF HAWAII INTERIOR AND SUMMMITS-

CITY           SKY/WX    TMP DP  RH WIND       PRES   REMARKS
BRADSHAW FIELD CLOUDY    52  52 100 N1        30.35F
MK VISITOR CEN   N/A     43  34  70 VRB3        N/A
MAUNA KEA*       N/A     37  -2  18 N21         N/A  WCI  27
MAUNA LOA*       N/A    N/A N/A N/A MISG        N/A
MAUNA LOA 1*   NOT AVBL
PTA KIPUKA*      N/A     72  72 100 NW1         N/A
PTA RANGE 17*    N/A     68  66  94 CALM        N/A
PTA WEST*        N/A     72  70  94 SE6         N/A
NENE CABIN*      N/A     50  50 100 N1          N/A
AHUMOA*        NOT AVBL
PTA PORTABLE*  NOT AVBL
PUU MALI*        N/A     50  45  81 SW5         N/A
$$

HIC003-301000-
NORTHWEST ISLANDS-

CITY           SKY/WX    TMP DP  RH WIND       PRES   REMARKS
MIDWAY ISLAND  CLEAR     72  66  83 E7        30.19R
MIDWAY NOS*      N/A     72 N/A N/A MISG      30.18R
FRENCH FRIGATE NOT AVBL
$$

PHZ110>124-180-301000-
BUOY REPORTS

STATION/POSITION TIME  TEMP    WIND        PRES    WAVE   SWELL
                       AIR SEA DIR/SP/G            HT/PER HT/DIR
                 (UTC) (F)     (DEG/KT/KT) (MB)    (FT/S) (FT/D)
BUOY 51001       0900   79 80   70/ 14/ 16 1017.9R
BUOY 51101       0850   75 79   60/ 14/ 17 1019.1R   5/12   5/310
BUOY 51100       NOT AVBL
BUOY 51002       0850   78 79   80/  8/ 10 1016.7S   5/15   5/170
BUOY 51003       0850   79 81   70/  6/  8 1017.0R   5/14   5/140
BUOY 51004       0850   77 79   90/ 10/ 12 1016.9S   5/ 8   5/ 90
BARBERS PT BUOY  NOT AVBL
WAIMEA BAY BUOY  0904      79                N/A     2/12   2/320
KAILUA BAY BUOY  0911      79                N/A     3/ 8   2/140
LANAI BUOY       0915      80                N/A     3/14   2/190
BARBERS PT 2     0903      79                N/A     4/15   3/170
PAUWELA MAUI     0909      79                N/A     4/ 8   2/330
HILO             0912      79                N/A     5/ 8   2/110
KANEOHE BAY BUOY 0906      78                N/A     2/ 8
HANALEI KAUAI    NOT AVBL
KAHULUI HARBOR   0900   76 80  300/  4/  6 1017.3R
HONOLULU HARBOR  0900   74 80   20/  1/  2 1018.2R
KILO NALU        NOT AVBL
HILO HARBOR      0900   71 79  200/  4/  5 1017.3R
MOKUOLOE         0800   78 82   50/  4/  5 1017.6R
NAWILIWILI       0900   71 80  240/  5/  6 1017.9S
WHOTS BUOY       NOT AVBL
BUOY 51028       NOT AVBL
$$

......................KEY........................................
  SKY/WX - SKY CONDITIONS/PRESENT WEATHER
  TMP    - TEMPERATURE IN FAHRENHEIT
  DWPT   - DEWPOINT IN FAHRENHEIT
  RH     - RELATIVE HUMIDITY IN PERCENT
  WIND   - DIRECTION AND SPEED /MPH FOR ISLANDS...KTS FOR BUOYS/
  PRES   - MEAN SEA LEVEL PRESSURE IN INCHES OF HG
  VSB    - VISIBILITY IN MILES
  HX     - HEAT INDEX
  WCI    - WIND CHILL INDEX
  VRB    - VARIABLE WIND DIRECTION
  N/A    - NOT AVAILABLE




USA.gov is the U.S. government's official web portal to all federal, state and local government web resources and services.